CGPZT CYXU-CYXU

Flight info

Callsign CGPZT
Flight time 0h 3m
Altitude 2000
Route VFR CIRCUITS
Aircraft C172

Departure

Time 2026-04-24 02:03
Airport London International Airport (CYXU)

Arrival

Time 2026-04-24 02:07
Airport London International Airport (CYXU)
Time Latitude Longitude Altitude Speed Heading
2026-04-24 01:56 43.03569 -81.16236 908 ft 0 kts 254°
2026-04-24 01:57 43.03574 -81.16272 909 ft 8 kts 300°
2026-04-24 01:57 43.03590 -81.16303 909 ft 0 kts 300°
2026-04-24 01:58 43.03606 -81.16332 910 ft 8 kts 311°
2026-04-24 01:58 43.03616 -81.16341 911 ft 4 kts 348°
2026-04-24 01:58 43.03627 -81.16318 911 ft 11 kts 94°
2026-04-24 01:58 43.03639 -81.16174 909 ft 17 kts 77°
2026-04-24 01:59 43.03662 -81.16021 908 ft 15 kts 76°
2026-04-24 01:59 43.03682 -81.15887 907 ft 14 kts 78°
2026-04-24 01:59 43.03702 -81.15754 906 ft 14 kts 72°
2026-04-24 01:59 43.03763 -81.15765 907 ft 10 kts 316°
2026-04-24 02:00 43.03809 -81.15819 908 ft 7 kts 319°
2026-04-24 02:00 43.03855 -81.15875 910 ft 11 kts 320°
2026-04-24 02:00 43.03928 -81.15962 910 ft 16 kts 320°
2026-04-24 02:00 43.04026 -81.16015 915 ft 15 kts
2026-04-24 02:01 43.04060 -81.16011 916 ft 0 kts
2026-04-24 02:01 43.04060 -81.16010 916 ft 1 kts
2026-04-24 02:01 43.04101 -81.15996 918 ft 13 kts 31°
2026-04-24 02:01 43.04106 -81.15857 916 ft 25 kts 145°
2026-04-24 02:02 43.03878 -81.15586 910 ft 66 kts 139°
2026-04-24 02:02 43.03484 -81.15079 1006 ft 85 kts 136°
2026-04-24 02:02 43.03059 -81.14507 1199 ft 88 kts 135°
2026-04-24 02:02 43.02753 -81.13814 1398 ft 89 kts 92°
2026-04-24 02:03 43.03512 -81.12528 1845 ft 94 kts 30°
2026-04-24 02:03 43.04179 -81.12576 1909 ft 102 kts 332°
2026-04-24 02:03 43.04691 -81.13236 1901 ft 103 kts 311°
2026-04-24 02:04 43.05191 -81.13944 1875 ft 108 kts 317°
2026-04-24 02:04 43.05747 -81.14639 1895 ft 108 kts 318°
2026-04-24 02:04 43.06343 -81.15298 1865 ft 110 kts 318°
2026-04-24 02:04 43.06805 -81.15984 1891 ft 92 kts 288°
2026-04-24 02:05 43.06726 -81.16762 1787 ft 82 kts 224°
2026-04-24 02:05 43.06340 -81.17309 1709 ft 79 kts 224°
2026-04-24 02:05 43.05939 -81.17824 1484 ft 78 kts 205°
2026-04-24 02:05 43.05532 -81.17610 1283 ft 69 kts 120°
2026-04-24 02:06 43.05207 -81.17170 1163 ft 66 kts 139°
2026-04-24 02:06 43.04858 -81.16750 1113 ft 67 kts 139°
2026-04-24 02:06 43.04514 -81.16333 1070 ft 64 kts 142°
2026-04-24 02:06 43.04186 -81.15944 984 ft 62 kts 142°
2026-04-24 02:07 43.03896 -81.15610 910 ft 45 kts 139°
2026-04-24 02:07 43.03664 -81.15328 912 ft 59 kts 138°
2026-04-24 02:07 43.03291 -81.14857 1007 ft 80 kts 133°
2026-04-24 02:07 43.02925 -81.14296 1243 ft 80 kts 136°
2026-04-24 02:08 43.02541 -81.13746 1440 ft 81 kts 132°
2026-04-24 02:08 43.02220 -81.13118 1666 ft 81 kts 104°
2026-04-24 02:08 43.02469 -81.12452 1908 ft 81 kts 47°
2026-04-24 02:08 43.02908 -81.11868 1896 ft 93 kts 50°
2026-04-24 02:09 43.03407 -81.11245 1910 ft 103 kts 37°
2026-04-24 02:09 43.04109 -81.11301 1888 ft 114 kts 319°
2026-04-24 02:09 43.04604 -81.12122 1924 ft 115 kts 305°
2026-04-24 02:09 43.05152 -81.12932 1926 ft 116 kts 318°
2026-04-24 02:10 43.05814 -81.13567 1905 ft 117 kts 327°
2026-04-24 02:10 43.06471 -81.14200 1919 ft 115 kts 318°
2026-04-24 02:10 43.07040 -81.14967 1884 ft 117 kts 326°
2026-04-24 02:10 43.07597 -81.15722 1873 ft 110 kts 281°
2026-04-24 02:11 43.07322 -81.16554 1896 ft 96 kts 217°
2026-04-24 02:11 43.06997 -81.16933 1886 ft 90 kts 218°
2026-04-24 02:11 43.06531 -81.17445 1825 ft 91 kts 219°
2026-04-24 02:11 43.06058 -81.18046 1695 ft 92 kts 214°
2026-04-24 02:12 43.05556 -81.17838 1598 ft 83 kts 133°
2026-04-24 02:12 43.05161 -81.17286 1644 ft 82 kts 138°
2026-04-24 02:12 43.04742 -81.16745 1805 ft 84 kts 140°
2026-04-24 02:12 43.04308 -81.16193 1891 ft 83 kts 142°
2026-04-24 02:13 43.03862 -81.15658 1865 ft 87 kts 139°
2026-04-24 02:13 43.03418 -81.15060 1811 ft 91 kts 140°
2026-04-24 02:13 43.02931 -81.14521 1865 ft 88 kts 140°
2026-04-24 02:13 43.02463 -81.13956 1840 ft 94 kts 142°
2026-04-24 02:14 43.01977 -81.13401 1925 ft 93 kts 143°
2026-04-24 02:14 43.01458 -81.12837 1933 ft 96 kts 146°
2026-04-24 02:14 43.00916 -81.12287 1908 ft 98 kts 146°
2026-04-24 02:14 43.00354 -81.11732 1899 ft 99 kts 145°
2026-04-24 02:15 42.99808 -81.11152 1905 ft 99 kts 134°
2026-04-24 02:15 42.99762 -81.10260 1869 ft 110 kts 54°
2026-04-24 02:15 43.00363 -81.09647 1901 ft 107 kts 38°
2026-04-24 02:15 43.00997 -81.09085 1906 ft 109 kts 33°
2026-04-24 02:16 43.01727 -81.08817 1851 ft 117 kts 346°
2026-04-24 02:16 43.02353 -81.09482 1851 ft 112 kts 314°
2026-04-24 02:16 43.02883 -81.10233 1886 ft 109 kts 311°
2026-04-24 02:16 43.03446 -81.10951 1876 ft 111 kts 318°
2026-04-24 02:17 43.04058 -81.11606 1862 ft 112 kts 320°
2026-04-24 02:17 43.04621 -81.12326 1875 ft 112 kts 315°
2026-04-24 02:17 43.05207 -81.13020 1896 ft 112 kts 327°
2026-04-24 02:17 43.05849 -81.13629 1886 ft 113 kts 321°
2026-04-24 02:18 43.06463 -81.14293 1883 ft 114 kts 319°
2026-04-24 02:18 43.07017 -81.15033 1913 ft 110 kts 308°
2026-04-24 02:18 43.07642 -81.15678 1892 ft 113 kts 333°
2026-04-24 02:18 43.08152 -81.16468 1784 ft 117 kts 278°
2026-04-24 02:19 43.07893 -81.17406 1801 ft 105 kts 221°
2026-04-24 02:19 43.07325 -81.17932 1933 ft 93 kts 200°
2026-04-24 02:19 43.06752 -81.18323 1763 ft 96 kts 205°
2026-04-24 02:19 43.06147 -81.18340 1577 ft 96 kts 143°
2026-04-24 02:20 43.05681 -81.17709 1441 ft 93 kts 140°
2026-04-24 02:20 43.05226 -81.17172 1343 ft 77 kts 142°
2026-04-24 02:20 43.04851 -81.16736 1230 ft 67 kts 138°
2026-04-24 02:20 43.04496 -81.16314 1103 ft 69 kts 141°
2026-04-24 02:21 43.04137 -81.15895 945 ft 65 kts 140°
2026-04-24 02:21 43.03848 -81.15549 910 ft 46 kts 141°
2026-04-24 02:21 43.03561 -81.15203 920 ft 73 kts 139°
2026-04-24 02:21 43.03166 -81.14684 1066 ft 84 kts 136°
2026-04-24 02:22 43.02846 -81.14048 1316 ft 81 kts 119°
2026-04-24 02:22 43.02991 -81.13327 1513 ft 86 kts 42°
2026-04-24 02:22 43.03472 -81.12834 1686 ft 92 kts 42°
2026-04-24 02:22 43.03999 -81.12344 1905 ft 93 kts 26°
2026-04-24 02:23 43.04635 -81.12523 1910 ft 99 kts 315°
2026-04-24 02:23 43.05085 -81.13285 1961 ft 107 kts 306°
2026-04-24 02:23 43.05620 -81.14018 1940 ft 117 kts 323°
2026-04-24 02:23 43.06313 -81.14680 1878 ft 123 kts 325°
2026-04-24 02:24 43.06926 -81.15443 1912 ft 114 kts 290°
2026-04-24 02:24 43.06823 -81.16326 1858 ft 94 kts 225°
2026-04-24 02:24 43.06384 -81.16927 1781 ft 86 kts 223°
2026-04-24 02:24 43.05951 -81.17511 1629 ft 86 kts 217°
2026-04-24 02:25 43.05482 -81.17461 1433 ft 72 kts 144°
2026-04-24 02:25 43.05107 -81.17034 1310 ft 66 kts 139°
2026-04-24 02:25 43.04753 -81.16625 1180 ft 67 kts 141°
2026-04-24 02:25 43.04418 -81.16217 1077 ft 64 kts 141°
2026-04-24 02:26 43.04075 -81.15819 930 ft 62 kts 140°
2026-04-24 02:26 43.03800 -81.15490 911 ft 43 kts 139°
2026-04-24 02:26 43.03522 -81.15157 914 ft 72 kts 138°
2026-04-24 02:26 43.03145 -81.14620 1098 ft 79 kts 131°
2026-04-24 02:27 43.02783 -81.14057 1323 ft 79 kts 133°
2026-04-24 02:27 43.02497 -81.13411 1505 ft 87 kts 88°
2026-04-24 02:27 43.02851 -81.12807 1801 ft 79 kts 43°
2026-04-24 02:27 43.03365 -81.12464 1851 ft 91 kts 350°
2026-04-24 02:28 43.03830 -81.13037 1839 ft 94 kts 315°
2026-04-24 02:28 43.04424 -81.13537 1874 ft 106 kts 334°
2026-04-24 02:28 43.05114 -81.13988 1904 ft 110 kts 335°
2026-04-24 02:28 43.05825 -81.14468 1882 ft 113 kts 332°
2026-04-24 02:29 43.06453 -81.15024 1891 ft 104 kts 306°
2026-04-24 02:29 43.06398 -81.15911 1716 ft 102 kts 223°
2026-04-24 02:29 43.05936 -81.16616 1684 ft 101 kts 226°
2026-04-24 02:29 43.05480 -81.17282 1587 ft 87 kts 203°
2026-04-24 02:30 43.05038 -81.16966 1374 ft 76 kts 135°
2026-04-24 02:30 43.04636 -81.16485 1187 ft 79 kts 142°
2026-04-24 02:30 43.04234 -81.16009 997 ft 73 kts 142°
2026-04-24 02:30 43.03881 -81.15593 914 ft 58 kts 142°
2026-04-24 02:31 43.03604 -81.15257 915 ft 62 kts 137°
2026-04-24 02:31 43.03250 -81.14756 1042 ft 78 kts 132°
2026-04-24 02:31 43.02903 -81.14218 1288 ft 75 kts 139°
2026-04-24 02:31 43.02505 -81.13729 1501 ft 77 kts 129°
2026-04-24 02:32 43.02668 -81.13093 1725 ft 78 kts 45°
2026-04-24 02:32 43.03126 -81.12601 1916 ft 85 kts 41°
2026-04-24 02:32 43.03612 -81.12014 1900 ft 101 kts 53°
2026-04-24 02:32 43.04158 -81.11374 1932 ft 111 kts 13°
2026-04-24 02:33 43.04811 -81.11861 1989 ft 112 kts 306°
2026-04-24 02:33 43.05333 -81.12758 1908 ft 123 kts 309°
2026-04-24 02:33 43.05896 -81.13663 1878 ft 127 kts 314°
2026-04-24 02:33 43.06564 -81.14416 1869 ft 123 kts 320°
2026-04-24 02:34 43.07115 -81.15195 1902 ft 102 kts 290°
2026-04-24 02:34 43.06928 -81.16024 1757 ft 99 kts 222°
2026-04-24 02:34 43.06461 -81.16689 1724 ft 98 kts 222°
2026-04-24 02:34 43.05997 -81.17329 1690 ft 92 kts 221°
2026-04-24 02:35 43.05507 -81.17607 1608 ft 66 kts 152°
2026-04-24 02:35 43.05165 -81.17148 1343 ft 72 kts 141°
2026-04-24 02:35 43.04806 -81.16679 1175 ft 69 kts 144°
2026-04-24 02:35 43.04457 -81.16271 1062 ft 64 kts 140°
2026-04-24 02:36 43.04126 -81.15880 943 ft 61 kts 141°
2026-04-24 02:36 43.03832 -81.15534 910 ft 47 kts 141°
2026-04-24 02:36 43.03571 -81.15214 915 ft 67 kts 137°
2026-04-24 02:36 43.03187 -81.14727 1076 ft 77 kts 136°
2026-04-24 02:37 43.02862 -81.14174 1307 ft 78 kts 114°
2026-04-24 02:37 43.02989 -81.13474 1526 ft 79 kts 57°
2026-04-24 02:37 43.03362 -81.12838 1686 ft 87 kts 56°
2026-04-24 02:37 43.03849 -81.12350 1857 ft 97 kts
2026-04-24 02:38 43.04441 -81.12877 1872 ft 111 kts 315°
2026-04-24 02:38 43.05043 -81.13576 1895 ft 115 kts 319°
2026-04-24 02:38 43.05720 -81.14204 1842 ft 122 kts 328°
2026-04-24 02:38 43.06421 -81.14831 1816 ft 115 kts 324°
2026-04-24 02:39 43.06661 -81.15729 1705 ft 105 kts 244°
2026-04-24 02:39 43.06244 -81.16478 1644 ft 93 kts 227°
2026-04-24 02:39 43.05843 -81.17144 1547 ft 93 kts 227°
2026-04-24 02:39 43.05349 -81.17480 1495 ft 79 kts 160°
2026-04-24 02:40 43.04986 -81.16955 1278 ft 76 kts 133°
2026-04-24 02:40 43.04622 -81.16471 1135 ft 70 kts 141°
2026-04-24 02:40 43.04272 -81.16055 989 ft 63 kts 141°
2026-04-24 02:40 43.03954 -81.15672 916 ft 54 kts 140°
2026-04-24 02:41 43.03693 -81.15364 911 ft 60 kts 139°
2026-04-24 02:41 43.03320 -81.14887 1004 ft 80 kts 136°
2026-04-24 02:41 43.02952 -81.14335 1244 ft 80 kts 131°
2026-04-24 02:41 43.02612 -81.13737 1451 ft 82 kts 108°
2026-04-24 02:42 43.02940 -81.13128 1684 ft 82 kts 39°
2026-04-24 02:42 43.03428 -81.12650 1800 ft 90 kts 35°
2026-04-24 02:42 43.03992 -81.12894 1817 ft 97 kts 300°
2026-04-24 02:42 43.04404 -81.13632 1797 ft 101 kts 327°
2026-04-24 02:43 43.05032 -81.14021 1868 ft 100 kts 334°
2026-04-24 02:43 43.05687 -81.14536 1846 ft 116 kts 327°
2026-04-24 02:43 43.06126 -81.15355 1794 ft 106 kts 264°
2026-04-24 02:43 43.05655 -81.15961 1631 ft 99 kts 208°
2026-04-24 02:44 43.05196 -81.16667 1461 ft 89 kts 236°
2026-04-24 02:44 43.04800 -81.16779 1248 ft 77 kts 127°
2026-04-24 02:44 43.04431 -81.16249 1074 ft 75 kts 140°
2026-04-24 02:44 43.04064 -81.15803 934 ft 64 kts 140°
2026-04-24 02:45 43.03792 -81.15456 915 ft 51 kts 139°
2026-04-24 02:45 43.03452 -81.15057 946 ft 79 kts 141°
2026-04-24 02:45 43.03003 -81.14552 1094 ft 89 kts 141°
2026-04-24 02:45 43.02529 -81.13989 1320 ft 87 kts 140°
2026-04-24 02:46 43.02223 -81.13303 1516 ft 91 kts 84°
2026-04-24 02:46 43.02545 -81.12592 1811 ft 82 kts 57°
2026-04-24 02:46 43.02944 -81.11907 1798 ft 104 kts 54°
2026-04-24 02:46 43.03601 -81.11744 1808 ft 113 kts 322°
2026-04-24 02:47 43.04143 -81.12508 1858 ft 112 kts 316°
2026-04-24 02:47 43.04737 -81.13209 1879 ft 112 kts 322°
2026-04-24 02:47 43.05414 -81.13767 1871 ft 114 kts 330°
2026-04-24 02:47 43.06078 -81.14343 1876 ft 114 kts 322°
2026-04-24 02:48 43.06686 -81.15059 1849 ft 116 kts 315°
2026-04-24 02:48 43.06882 -81.16042 1782 ft 113 kts 245°
2026-04-24 02:48 43.06362 -81.16790 1781 ft 107 kts 225°
2026-04-24 02:48 43.05897 -81.17593 1722 ft 105 kts 228°
2026-04-24 02:49 43.05308 -81.18007 1475 ft 101 kts 157°
2026-04-24 02:49 43.05017 -81.17190 1301 ft 92 kts 110°
2026-04-24 02:49 43.04685 -81.16533 1151 ft 77 kts 141°
2026-04-24 02:49 43.04305 -81.16088 1019 ft 70 kts 139°
2026-04-24 02:50 43.03958 -81.15679 916 ft 58 kts 140°
2026-04-24 02:50 43.03694 -81.15365 911 ft 58 kts 139°
2026-04-24 02:50 43.03333 -81.14883 997 ft 81 kts 133°
2026-04-24 02:50 43.02989 -81.14302 1238 ft 80 kts 131°
2026-04-24 02:51 43.02638 -81.13727 1457 ft 81 kts 103°
2026-04-24 02:51 43.02895 -81.13102 1710 ft 79 kts 49°
2026-04-24 02:51 43.03313 -81.12559 1838 ft 90 kts 45°
2026-04-24 02:51 43.03909 -81.12151 1839 ft 103 kts 356°
2026-04-24 02:52 43.04460 -81.12750 1899 ft 106 kts 304°
2026-04-24 02:52 43.05026 -81.13430 1918 ft 112 kts 328°
2026-04-24 02:52 43.05717 -81.13952 1886 ft 117 kts 336°
2026-04-24 02:52 43.06464 -81.14361 1894 ft 115 kts 343°
2026-04-24 02:53 43.07100 -81.14956 1871 ft 108 kts 289°
2026-04-24 02:53 43.06918 -81.15800 1780 ft 96 kts 226°
2026-04-24 02:53 43.06541 -81.16532 1747 ft 89 kts 238°
2026-04-24 02:53 43.06230 -81.17252 1669 ft 85 kts 227°
2026-04-24 02:54 43.05762 -81.17488 1586 ft 73 kts 165°
2026-04-24 02:54 43.05270 -81.17230 1391 ft 77 kts 142°
2026-04-24 02:54 43.04998 -81.16933 1291 ft 75 kts 140°
2026-04-24 02:54 43.04625 -81.16473 1148 ft 72 kts 139°
2026-04-24 02:55 43.04143 -81.15903 940 ft 63 kts 140°
2026-04-24 02:55 43.03939 -81.15658 911 ft 52 kts 140°
2026-04-24 02:55 43.03715 -81.15391 911 ft 36 kts 138°
2026-04-24 02:55 43.03585 -81.15260 915 ft 7 kts 174°
2026-04-24 02:56 43.03568 -81.15280 915 ft 5 kts 266°
2026-04-24 02:56 43.03549 -81.15332 914 ft 7 kts 227°
2026-04-24 02:56 43.03513 -81.15385 911 ft 8 kts 227°
2026-04-24 02:56 43.03466 -81.15417 910 ft 8 kts 205°
2026-04-24 02:57 43.03393 -81.15428 909 ft 13 kts 182°
2026-04-24 02:57 43.03308 -81.15419 908 ft 11 kts 140°
2026-04-24 02:57 43.03261 -81.15353 908 ft 8 kts 135°
2026-04-24 02:57 43.03225 -81.15315 909 ft 6 kts 164°
2026-04-24 02:58 43.03184 -81.15330 908 ft 8 kts 231°
2026-04-24 02:58 43.03135 -81.15384 905 ft 11 kts 225°
2026-04-24 02:58 43.03070 -81.15433 904 ft 10 kts 140°
2026-04-24 02:58 43.03060 -81.15422 904 ft 0 kts 136°